Flag for Greece Weather past 2 weeks in Thessaloniki, Greece

Now
73 °F

Overcast.


Feels Like: 77 °F
Forecast: 62 / 79 °F
Wind: 3 mph from North

Location: Thessaloniki Airport

Current Time: May 7, 2015 at 10:46:39 AM

Latest Report: May 7, 2015 at 9:50 AM


Visibility: N/A

Pressure: 29.89 "Hg

Humidity: 57%

Dew point: 57 °F

Location of ThessalonikiLocation

Historic Weather in Thessaloniki — Graph

°F

Thessaloniki temperature yesterday

Maximum temperature yesterday: 86 °F (at 3:50 PM)
Minimum temperature yesterday: 32 °F (at 4:20 AM)
Average temperature yesterday: 70 °F

Past Weeks' High & Low Weather Summary

 TemperatureHumidityPressure
High86 °F (May 6, 3:50 PM)100% (May 6, 4:20 AM)30.27 "Hg (May 6, 4:20 AM)
Low32 °F (May 6, 4:20 AM)23% (May 3, 4:20 PM)29.68 "Hg (Apr 28, 3:50 PM)
Average63 °F63%29.98 "Hg
* Reported Apr 22 9:20 AM — May 7 9:20 AM, Thessaloniki, Weather by CustomWeather, © 2015

Note: Actual official high and low records may vary slightly from our data, if they occured in-between our weather recording intervals... More about our weather records

Advertising

Thessaloniki weather history for previous 24 hours

 ConditionsComfort  
Time TempWeatherWind HumidityBarometerVisibility
9:20 AM
Thu, May 7
72 °FPartly sunny.3 mph61%29.86 "HgN/A
8:50 AM70 °FPartly sunny.5 mph64%29.89 "HgN/A
8:20 AM66 °FPartly sunny.3 mph68%29.89 "HgN/A
7:50 AM64 °FBroken clouds.3 mph78%29.89 "HgN/A
7:20 AM63 °FScattered clouds.3 mph77%29.89 "HgN/A
6:50 AM59 °FPassing clouds.5 mph82%29.89 "HgN/A
6:20 AM59 °FPassing clouds.2 mph88%29.89 "HgN/A
5:50 AM59 °FPassing clouds.3 mph82%29.86 "HgN/A
5:20 AM61 °FPassing clouds.7 mph77%29.86 "HgN/A
4:50 AM61 °FPassing clouds.6 mph77%29.89 "HgN/A
4:20 AM61 °FPassing clouds.5 mph77%29.89 "HgN/A
3:50 AM61 °FPassing clouds.5 mph83%29.89 "HgN/A
3:20 AM61 °FClear.5 mph77%29.89 "Hg10 mi
2:50 AM61 °FClear.6 mph77%29.89 "Hg10 mi
2:20 AM64 °FClear.2 mph64%29.92 "Hg10 mi
1:50 AM64 °FClear.3 mph64%29.92 "Hg10 mi
12:50 AM64 °FClear.1 mph68%29.92 "Hg10 mi
11:50 PM
Wed, May 6
66 °FClear.3 mph68%29.92 "Hg10 mi
11:20 PM66 °FClear.5 mph68%29.89 "Hg10 mi
10:50 PM68 °FClear.3 mph64%29.92 "Hg10 mi
10:20 PM68 °FClear.3 mph64%29.89 "Hg10 mi
9:50 PM68 °FClear.6 mph64%29.89 "Hg10 mi
9:20 PM72 °FSunny.5 mph53%29.89 "Hg10 mi
8:50 PM72 °FSunny.5 mph53%29.89 "Hg10 mi
8:20 PM73 °FSunny.9 mph53%29.89 "Hg10 mi
7:50 PM75 °FPassing clouds.6 mph50%29.86 "HgN/A
7:20 PM75 °FSunny.6 mph47%29.86 "Hg10 mi
6:50 PM79 °FSunny.10 mph39%29.86 "Hg10 mi
6:20 PM82 °FSunny.9 mph35%29.86 "Hg10 mi
5:50 PM84 °FSunny.12 mph33%29.86 "Hg10 mi
5:20 PM86 °FSunny.10 mph29%29.86 "Hg10 mi
4:50 PM86 °FSunny.10 mph29%29.86 "Hg10 mi
4:20 PM86 °FSunny.12 mph29%29.86 "Hg10 mi
3:50 PM86 °FSunny.10 mph29%29.89 "Hg10 mi
3:20 PM81 °FSunny.8 mph54%29.89 "Hg10 mi
2:50 PM79 °FSunny.8 mph51%29.89 "Hg10 mi
2:20 PM79 °FSunny.6 mph51%29.92 "Hg10 mi
1:50 PM77 °FSunny.7 mph51%29.92 "Hg10 mi
1:20 PM77 °FSunny.8 mph51%29.92 "Hg10 mi
12:50 PM77 °FSunny.7 mph39%29.92 "Hg10 mi
12:20 PM77 °FSunny.6 mph39%29.92 "Hg10 mi
11:50 AM79 °FSunny.3 mph34%29.95 "Hg10 mi
11:20 AM75 °FSunny.3 mph41%29.95 "Hg10 mi
10:50 AM73 °FSunny.5 mph47%29.95 "Hg10 mi
10:20 AM72 °FSunny.5 mph53%29.95 "Hg10 mi
Weather by CustomWeather, © 2015

See weather overviewHow to use our weather pages